TimeCDT,TemperatureF,Dew PointF,Humidity,Sea Level PressureIn,VisibilityMPH,Wind Direction,Wind SpeedMPH,Gust SpeedMPH,PrecipitationIn,Events,Conditions,WindDirDegrees,DateUTC
12:53 AM,69.1,66.9,93,29.99,6.0,Calm,Calm,-,N/A,,Clear,0,2013-05-21 05:53:00
1:53 AM,71.1,66.9,87,29.97,10.0,West,4.6,-,N/A,,Clear,270,2013-05-21 06:53:00
2:53 AM,69.1,66.0,90,29.96,9.0,Calm,Calm,-,N/A,,Clear,0,2013-05-21 07:53:00
3:53 AM,66.0,64.9,96,29.96,5.0,Calm,Calm,-,N/A,,Clear,0,2013-05-21 08:53:00
4:25 AM,66.2,64.4,94,29.99,4.0,Calm,Calm,-,N/A,,Partly Cloudy,0,2013-05-21 09:25:00
4:37 AM,64.4,64.4,100,29.99,2.5,Calm,Calm,-,N/A,,Partly Cloudy,0,2013-05-21 09:37:00
4:43 AM,66.2,64.4,94,29.99,3.0,Calm,Calm,-,N/A,,Mostly Cloudy,0,2013-05-21 09:43:00
4:53 AM,64.9,64.0,97,29.98,4.0,Calm,Calm,-,N/A,,Mostly Cloudy,0,2013-05-21 09:53:00
5:15 AM,66.2,64.4,94,30.00,5.0,Calm,Calm,-,N/A,,Overcast,0,2013-05-21 10:15:00
5:47 AM,66.2,64.4,94,30.00,1.5,Calm,Calm,-,N/A,,Overcast,0,2013-05-21 10:47:00
5:53 AM,66.9,66.0,97,29.99,0.5,Calm,Calm,-,N/A,Fog,Fog,0,2013-05-21 10:53:00
6:53 AM,69.1,68.0,96,30.01,0.2,Calm,Calm,-,N/A,Fog,Fog,0,2013-05-21 11:53:00
7:53 AM,69.1,69.1,100,30.02,0.2,Calm,Calm,-,N/A,Fog,Fog,0,2013-05-21 12:53:00
8:14 AM,69.8,69.8,100,30.04,1.5,Calm,Calm,-,N/A,,Overcast,0,2013-05-21 13:14:00
8:32 AM,69.8,69.8,100,30.04,2.5,Calm,Calm,-,N/A,,Overcast,0,2013-05-21 13:32:00
8:41 AM,71.6,69.8,94,30.04,4.0,Calm,Calm,-,N/A,,Overcast,0,2013-05-21 13:41:00
8:53 AM,71.1,69.1,93,30.04,7.0,Calm,Calm,-,N/A,,Overcast,0,2013-05-21 13:53:00
9:07 AM,71.6,68.0,88,30.04,9.0,Calm,Calm,-,N/A,,Mostly Cloudy,0,2013-05-21 14:07:00
9:17 AM,73.4,68.0,83,30.04,10.0,Calm,Calm,-,N/A,,Scattered Clouds,0,2013-05-21 14:17:00
9:53 AM,79.0,68.0,69,30.04,10.0,Calm,Calm,-,N/A,,Clear,0,2013-05-21 14:53:00
10:53 AM,82.0,66.9,60,30.02,10.0,Calm,Calm,-,N/A,,Clear,0,2013-05-21 15:53:00
11:53 AM,84.9,64.9,51,30.01,10.0,Calm,Calm,-,N/A,,Clear,0,2013-05-21 16:53:00
12:53 PM,86.0,62.1,44,29.99,10.0,Calm,Calm,-,N/A,,Clear,0,2013-05-21 17:53:00
1:53 PM,88.0,62.1,42,29.97,10.0,SSE,6.9,-,N/A,,Clear,160,2013-05-21 18:53:00
2:53 PM,89.1,64.0,43,29.94,10.0,Variable,5.8,-,N/A,,Clear,0,2013-05-21 19:53:00
3:53 PM,90.0,63.0,40,29.93,10.0,SSW,3.5,-,N/A,,Partly Cloudy,210,2013-05-21 20:53:00
4:53 PM,90.0,63.0,40,29.90,10.0,SSW,10.4,-,N/A,,Partly Cloudy,200,2013-05-21 21:53:00
5:53 PM,88.0,62.1,42,29.88,10.0,South,5.8,-,N/A,,Clear,190,2013-05-21 22:53:00
6:53 PM,86.0,64.9,49,29.88,10.0,South,4.6,-,N/A,,Clear,180,2013-05-21 23:53:00
7:53 PM,79.0,66.9,66,29.88,10.0,Calm,Calm,-,N/A,,Clear,0,2013-05-22 00:53:00
8:53 PM,78.1,66.0,66,29.90,10.0,South,5.8,-,N/A,,Clear,190,2013-05-22 01:53:00
9:53 PM,75.9,64.0,67,29.95,10.0,SSW,4.6,-,N/A,,Clear,200,2013-05-22 02:53:00
10:53 PM,73.0,64.9,76,29.96,10.0,SSW,4.6,-,N/A,,Clear,210,2013-05-22 03:53:00
11:53 PM,72.0,64.9,78,29.96,10.0,Calm,Calm,-,N/A,,Clear,0,2013-05-22 04:53:00